Block Island, RI

6:15 AM EDT on August 27, 2016 (GMT -0400)
Block Island State

Weather History for KBID - January, 2014

Change the Weather History Date:

Friday, January 31, 2014

  Actual Average Record
Temperature  
Mean Temperature 36 °F -  
Max Temperature 39 °F 36 °F 55 °F (2013)
Min Temperature 32 °F 24 °F 8 °F (1962)
Degree Days  
Heating Degree Days 30    
Moisture  
Dew Point 24 °F    
Average Humidity 64    
Maximum Humidity 81    
Minimum Humidity 52    
Precipitation  
Precipitation 0.00 in - - ()
Sea Level Pressure  
Sea Level Pressure 30.12 in    
Wind  
Wind Speed 12 mph (West)    
Max Wind Speed 17 mph    
Max Gust Speed 23 mph    
Visibility 10 miles    
Events      
Averages and records for this station are not official NWS values.
T = Trace of Precipitation, MM = Missing Value Source: NWS Daily Summary

Daily Weather History Graph

Daily Weather History Graph

Search for Another Location

Airport or City:

Trip Planner

Search our weather history database for the weather conditions in past years. The results will help you decide how hot, cold, wet, or windy it might be!

Date:

Astronomy

Jan. 31, 2014 Rise Set
Actual Time 6:58 AM EST 5:01 PM EST
Civil Twilight 6:29 AM EST 5:31 PM EST
Nautical Twilight 5:55 AM EST 6:04 PM EST
Astronomical Twilight 5:23 AM EST 6:36 PM EST
Moon 7:05 AM EST (1/31) 6:23 PM EST (1/31)
Length of Visible Light 11h 02m
Length of Day
10h 03m
New Moon, 1% of the Moon is Illuminated
Jan 31
New Moon
Feb 6
First Quarter
Feb 14
Full
Feb 22
Last Quarter
Mar 1
New

Hourly Weather History & Observations

Time (EST) Temp. Windchill Dew Point Humidity Pressure Visibility Wind Dir Wind Speed Gust Speed Precip Events Conditions
12:15 AM 33.8 °F 24.3 °F 23.0 °F 65% 30.19 in 10.0 mi SSW 13.8 mph - N/A   Scattered Clouds
12:35 AM 33.8 °F 25.3 °F 24.8 °F 70% 30.17 in 10.0 mi SSW 11.5 mph - N/A   Partly Cloudy
12:55 AM 35.6 °F 27.1 °F 26.6 °F 70% 30.15 in 10.0 mi SSW 12.7 mph - N/A   Partly Cloudy
1:15 AM 35.6 °F 27.1 °F 28.4 °F 75% 30.15 in 10.0 mi SSW 12.7 mph 18.4 mph N/A   Mostly Cloudy
1:35 AM 37.4 °F 28.5 °F 28.4 °F 70% 30.14 in 10.0 mi SSW 15.0 mph - N/A   Overcast
1:55 AM 37.4 °F 28.2 °F 28.4 °F 70% 30.14 in 10.0 mi SSW 16.1 mph 19.6 mph N/A   Overcast
2:15 AM 37.4 °F 28.9 °F 30.2 °F 75% 30.14 in 10.0 mi SSW 13.8 mph 20.7 mph N/A   Overcast
2:35 AM 37.4 °F 28.5 °F 30.2 °F 75% 30.13 in 10.0 mi SSW 15.0 mph - N/A   Overcast
2:55 AM 37.4 °F 28.9 °F 30.2 °F 75% 30.11 in 10.0 mi SSW 13.8 mph 21.9 mph N/A   Overcast
3:15 AM 39.2 °F 30.2 °F 30.2 °F 70% 30.09 in 10.0 mi SSW 17.3 mph 21.9 mph N/A   Overcast
3:35 AM 39.2 °F 31.2 °F 32.0 °F 75% 30.09 in 10.0 mi SSW 13.8 mph 20.7 mph N/A   Overcast
3:55 AM 39.2 °F 32.0 °F 33.8 °F 81% 30.09 in 10.0 mi SW 11.5 mph - N/A   Overcast
4:15 AM 35.6 °F 29.2 °F 28.4 °F 75% 30.08 in 10.0 mi West 8.1 mph - N/A   Overcast
4:35 AM 33.8 °F 25.8 °F 28.4 °F 81% 30.08 in 10.0 mi West 10.4 mph - N/A   Overcast
4:55 AM 33.8 °F 25.3 °F 28.4 °F 81% 30.08 in 10.0 mi West 11.5 mph - N/A   Overcast
5:15 AM 33.8 °F 23.9 °F 28.4 °F 81% 30.10 in 10.0 mi West 15.0 mph 20.7 mph N/A   Overcast
5:35 AM 33.8 °F 25.3 °F 26.6 °F 75% 30.08 in 10.0 mi West 11.5 mph 17.3 mph N/A   Overcast
5:55 AM 32.0 °F 23.0 °F 26.6 °F 80% 30.09 in 10.0 mi West 11.5 mph - N/A   Overcast
6:15 AM 32.0 °F 21.6 °F 26.6 °F 80% 30.10 in 10.0 mi West 15.0 mph - N/A   Overcast
6:35 AM 32.0 °F 22.5 °F 24.8 °F 75% 30.10 in 10.0 mi West 12.7 mph 20.7 mph N/A   Overcast
6:55 AM 32.0 °F 23.0 °F 24.8 °F 75% 30.08 in 10.0 mi West 11.5 mph 16.1 mph N/A   Scattered Clouds
7:15 AM 32.0 °F 23.6 °F 24.8 °F 75% 30.09 in 10.0 mi West 10.4 mph 19.6 mph N/A   Clear
7:35 AM 33.8 °F 24.8 °F 24.8 °F 70% 30.10 in 10.0 mi West 12.7 mph 18.4 mph N/A   Partly Cloudy
7:55 AM 33.8 °F 25.3 °F 24.8 °F 70% 30.10 in 10.0 mi West 11.5 mph - N/A   Partly Cloudy
8:15 AM 33.8 °F 24.8 °F 24.8 °F 70% 30.10 in 10.0 mi West 12.7 mph 18.4 mph N/A   Clear
8:35 AM 33.8 °F 25.3 °F 24.8 °F 70% 30.11 in 10.0 mi West 11.5 mph 19.6 mph N/A   Clear
8:55 AM 33.8 °F 24.8 °F 23.0 °F 65% 30.11 in 10.0 mi West 12.7 mph 21.9 mph N/A   Clear
9:15 AM 33.8 °F 24.3 °F 24.8 °F 70% 30.10 in 10.0 mi West 13.8 mph 19.6 mph N/A   Clear
9:35 AM 33.8 °F 24.3 °F 21.2 °F 60% 30.11 in 10.0 mi West 13.8 mph 23.0 mph N/A   Clear
9:55 AM 33.8 °F 23.5 °F 19.4 °F 56% 30.11 in 10.0 mi West 16.1 mph 23.0 mph N/A   Partly Cloudy
10:15 AM 33.8 °F 23.5 °F 24.8 °F 70% 30.11 in 10.0 mi West 16.1 mph 21.9 mph N/A   Clear
10:35 AM 33.8 °F 25.3 °F 19.4 °F 56% 30.10 in 10.0 mi West 11.5 mph 21.9 mph N/A   Clear
10:55 AM 33.8 °F 24.3 °F 17.6 °F 52% 30.10 in 10.0 mi West 13.8 mph 19.6 mph N/A   Clear
11:15 AM 33.8 °F 25.3 °F 19.4 °F 56% 30.10 in 10.0 mi West 11.5 mph - N/A   Clear
11:35 AM 33.8 °F 23.5 °F 19.4 °F 56% 30.09 in 10.0 mi West 16.1 mph - N/A   Clear
11:55 AM 33.8 °F 23.9 °F 21.2 °F 60% 30.09 in 10.0 mi West 15.0 mph 20.7 mph N/A   Clear
12:15 PM 35.6 °F 25.5 °F 21.2 °F 56% 30.09 in 10.0 mi West 17.3 mph 21.9 mph N/A   Clear
12:35 PM 35.6 °F 27.5 °F 21.2 °F 56% 30.08 in 10.0 mi West 11.5 mph 18.4 mph N/A   Clear
12:55 PM 33.8 °F 25.8 °F 21.2 °F 60% 30.08 in 10.0 mi West 10.4 mph 19.6 mph N/A   Partly Cloudy
1:15 PM 35.6 °F 27.1 °F 21.2 °F 56% 30.06 in 10.0 mi West 12.7 mph 19.6 mph N/A   Mostly Cloudy
1:35 PM 35.6 °F 26.2 °F 19.4 °F 52% 30.06 in 10.0 mi West 15.0 mph 19.6 mph N/A   Mostly Cloudy
1:55 PM 35.6 °F 26.6 °F 19.4 °F 52% 30.06 in 10.0 mi West 13.8 mph 18.4 mph N/A   Overcast
2:15 PM 35.6 °F 27.5 °F 21.2 °F 56% 30.07 in 10.0 mi West 11.5 mph 16.1 mph N/A   Overcast
2:35 PM 35.6 °F 27.5 °F 19.4 °F 52% 30.08 in 10.0 mi West 11.5 mph - N/A   Mostly Cloudy
2:55 PM 35.6 °F 28.6 °F 21.2 °F 56% 30.08 in 10.0 mi West 9.2 mph - N/A   Scattered Clouds
3:15 PM 35.6 °F 27.1 °F 21.2 °F 56% 30.08 in 10.0 mi West 12.7 mph 17.3 mph N/A   Clear
3:35 PM 35.6 °F 28.0 °F 21.2 °F 56% 30.09 in 10.0 mi West 10.4 mph 17.3 mph N/A   Clear
3:55 PM 37.4 °F 29.3 °F 23.0 °F 56% 30.10 in 10.0 mi West 12.7 mph 17.3 mph N/A   Clear
4:15 PM 35.6 °F 28.6 °F 23.0 °F 60% 30.09 in 10.0 mi West 9.2 mph - N/A   Clear
4:35 PM 35.6 °F 28.6 °F 23.0 °F 60% 30.10 in 10.0 mi West 9.2 mph - N/A   Clear
4:55 PM 35.6 °F 28.6 °F 21.2 °F 56% 30.10 in 10.0 mi West 9.2 mph - N/A   Clear
5:15 PM 35.6 °F 28.6 °F 21.2 °F 56% 30.10 in 10.0 mi West 9.2 mph - N/A   Clear
5:35 PM 35.6 °F 28.0 °F 21.2 °F 56% 30.11 in 10.0 mi West 10.4 mph - N/A   Clear
5:55 PM 35.6 °F 29.2 °F 21.2 °F 56% 30.11 in 10.0 mi West 8.1 mph - N/A   Clear
6:15 PM 33.8 °F 27.0 °F 19.4 °F 56% 30.11 in 10.0 mi West 8.1 mph - N/A   Clear
6:35 PM 35.6 °F 29.9 °F 21.2 °F 56% 30.13 in 10.0 mi West 6.9 mph - N/A   Clear
6:55 PM 35.6 °F 29.2 °F 21.2 °F 56% 30.14 in 10.0 mi West 8.1 mph - N/A   Clear
7:15 PM 35.6 °F 29.2 °F 21.2 °F 56% 30.15 in 10.0 mi West 8.1 mph - N/A   Clear
7:35 PM 35.6 °F 28.0 °F 21.2 °F 56% 30.16 in 10.0 mi West 10.4 mph - N/A   Partly Cloudy
7:55 PM 35.6 °F 29.2 °F 24.8 °F 65% 30.17 in 10.0 mi West 8.1 mph - N/A   Partly Cloudy
8:15 PM 37.4 °F 30.8 °F 24.8 °F 60% 30.17 in 10.0 mi West 9.2 mph - N/A   Clear
8:35 PM 37.4 °F 31.4 °F 24.8 °F 60% 30.17 in 10.0 mi West 8.1 mph - N/A   Clear
8:55 PM 37.4 °F 31.4 °F 24.8 °F 60% 30.17 in 10.0 mi West 8.1 mph - N/A   Clear
9:15 PM 37.4 °F 32.1 °F 26.6 °F 65% 30.19 in 10.0 mi West 6.9 mph - N/A   Partly Cloudy
9:35 PM 37.4 °F 32.1 °F 24.8 °F 60% 30.18 in 10.0 mi West 6.9 mph - N/A   Clear
9:55 PM 37.4 °F 32.1 °F 24.8 °F 60% 30.19 in 10.0 mi West 6.9 mph - N/A   Clear
10:15 PM 37.4 °F 32.8 °F 26.6 °F 65% 30.20 in 10.0 mi West 5.8 mph - N/A   Clear
10:35 PM 37.4 °F 32.8 °F 24.8 °F 60% 30.21 in 10.0 mi West 5.8 mph - N/A   Clear
10:55 PM 37.4 °F 32.8 °F 24.8 °F 60% 30.21 in 10.0 mi West 5.8 mph - N/A   Mostly Cloudy
11:15 PM 37.4 °F 32.8 °F 24.8 °F 60% 30.22 in 10.0 mi West 5.8 mph - N/A   Mostly Cloudy
11:35 PM 37.4 °F 32.1 °F 26.6 °F 65% 30.22 in 10.0 mi West 6.9 mph - N/A   Partly Cloudy
11:55 PM 37.4 °F 32.1 °F 26.6 °F 65% 30.23 in 10.0 mi West 6.9 mph - N/A   Scattered Clouds